Ana Sayfa
METAR-TAF:

METAR-TAF

Havaalanları :

Shenandoah Valley Regional Airport

Staunton / Waynesboro / Harrisonburg, Virginia, Amerika Birleşik Devletleri

Enlem: 38-16N, Boylam: 078-54W, yükseklik: 366 m

Güncel hava durumu gözlemi

Rapor saat 23:15 UTC de 1 saat ve 26 dakika önce yapıldı.
Rüzgar kuzey/kuzeybatıdan 4 kt
Sıcaklık 14°C
Nem 55%
Basınç 1018 hPa
Görüş mesafesi: 16.1 km
Açık gökyüzü

METAR: KSHD 232315Z AUTO 33004KT 10SM CLR 14/05 A3006 RMK AO2 T01350047

Saat: 20:41 (00:41 UTC)


TAF: eksik

4.000'den fazla havaalanı için hava durumu gözlemleri ve tahminleri (METAR ve TAF raporları).

Kullanılabilir istasyonlar harita üzerinde sarı ve kırmızı noktalarla gösterilir.

İstasyonun adını görmek için fareyi noktanın üzerinde gezdirin.

Sonrasında hava gözlem ve tahminlerini görmek için tıklayın.

Haritayı değiştirmek için: yaklaştırmak için siyah artı işaretli yeşil düğmeye ve uzaklaştırmak için de eksi işaretli düğmeye hızla tıklayın; bitişik haritalar için yeşil okları kullanın.


METAR-TAF: